Location: Unspecified
(48.5539°N, 71.6350°W)
Time: 22:44:54
(UTC-05:00)

ISS - Pass Details

Date: 27 January 2019
Orbit: 403 x 411 km, 51.6° (Epoch: 17 February)

Event Time Altitude Azimuth Distance (km) Brightness Sun altitude
Rises 21:47:00 0° 291° (WNW) 2,346 - -49.6°
Reaches altitude 10° 21:49:05 10° 290° (WNW) 1,483 - -49.9°
Maximum altitude 21:52:25 75° 204° (SSW) 431 - -50.3°
Drops below altitude 10° 21:55:44 10° 119° (ESE) 1,479 - -50.8°
Sets 21:57:49 0° 118° (ESE) 2,339 - -51.0°
